ALESUND / VIGRA current weather conditions

sailwx.info

Wind from 110 at 7 knots gusting 17

Air temperature 8.0° C
Visibility: greater than 5.4 NM
Dewpoint 6.0° C
Present weather: Light drizzle.

Last reported at 2014-Oct-31 19:20 UTC.
Time now 2014-Nov-01 01:16 UTC

Location: N 62°34' E 006°07'.
View on Google Maps.

See reports from other nearby stations

  
Tides and Currents Weather Stations Pressure Air Temp Water Temp Dewpoint Dewpoint Depression Visibility Wind Speed Wind Dir Waves Ship Positions
date/time (UTC)wind fromknots sea level pressurealtimeterstation pressurevisibilityair tempwater tempwave heightnotes
2014-Oct-31 19:20 110 7 gusting 17 5.4 8.0 Light drizzle.
2014-Oct-31 18:50 130 9 5.4 8.0 Rain.
2014-Oct-31 18:20 140 13 5.4 8.0 Light rain.
2014-Oct-31 17:50 140 12 5.4 9.0 Light rain.
2014-Oct-31 17:20 130 12 5.4 9.0
2014-Oct-31 16:50 120 9 5.4 9.0 Light rain.
2014-Oct-31 16:20 100 7 5.4 8.0 Light rain.
2014-Oct-31 15:50 090 7 5.4 8.0 Light rain.
2014-Oct-31 15:20 130 9 5.4 8.0 Light rain.
2014-Oct-31 14:50 130 11 5.4 8.0 Light drizzle.
2014-Oct-31 14:20 140 11 5.4 8.0 Light drizzle.
2014-Oct-31 13:50 120 5 5.4 9.0 Light drizzle.
2014-Oct-31 13:20 120 3 5.4 9.0
2014-Oct-31 12:50 140 9 8.0
2014-Oct-31 12:20 090 5 8.0
2014-Oct-31 11:50 100 4 8.0
2014-Oct-31 11:20 130 10 7.0
2014-Oct-31 10:50 100 6 7.0
2014-Oct-31 10:20 040 6 7.0
2014-Oct-31 09:50 120 9 7.0
2014-Oct-31 09:20 7.0
2014-Oct-31 08:50 100 5 6.0
2014-Oct-31 08:20 110 11 6.0
2014-Oct-31 07:50 090 12 5.0
2014-Oct-31 07:20 070 12 5.0
2014-Oct-31 06:50 070 8 3.0
2014-Oct-31 06:20 100 5 2.0
2014-Oct-31 05:50 060 6 5.0
2014-Oct-31 05:20 120 7 5.0
2014-Oct-31 04:50 120 8 5.0
2014-Oct-31 04:20 090 5 5.4 4.0
2014-Oct-31 03:50 130 8 5.4 4.0
2014-Oct-31 03:20 130 8 5.4 4.0
2014-Oct-31 02:50 130 10 5.4 5.0
2014-Oct-31 02:20 120 7 5.4 4.0
2014-Oct-31 01:50 150 8 5.4 4.0
2014-Oct-31 01:20 140 8 5.4 5.0
2014-Oct-31 00:50 140 9 5.4 5.0
2014-Oct-30 23:50 150 8 5.4 5.0
2014-Oct-30 23:20 140 9 5.4 5.0
2014-Oct-30 22:50 140 8 5.4 5.0
2014-Oct-30 22:20 140 8 5.4 5.0
2014-Oct-30 21:50 130 7 5.4 5.0
2014-Oct-30 21:20 140 7 5.4 4.0
2014-Oct-30 20:50 140 7 5.4 4.0
2014-Oct-30 20:20 150 6 5.4 4.0
2014-Oct-30 19:50 140 8 5.4 4.0
2014-Oct-30 19:20 150 6 5.4 6.0 Showers in the vicinity.
2014-Oct-30 18:50 150 5 5.4 6.0 Showers in the vicinity.
2014-Oct-30 18:20 150 5 5.4 7.0 Showers in the vicinity.
2014-Oct-30 17:50 180 4 5.4 7.0 Showers in the vicinity.
2014-Oct-30 17:20 200 5 5.4 7.0 Showers in the vicinity.
2014-Oct-30 16:50 190 5 5.4 7.0 Showers in the vicinity.
2014-Oct-30 16:20 180 7 5.4 7.0
2014-Oct-30 15:50 190 8 5.4 7.0
2014-Oct-30 15:20 200 6 5.4 7.0
2014-Oct-30 14:50 180 7 5.4 7.0
2014-Oct-30 14:20 180 6 5.4 7.0
2014-Oct-30 13:50 210 10 5.4 6.0 Light drizzle.
2014-Oct-30 13:20 200 7 5.4 7.0 Showers in the vicinity.
2014-Oct-30 12:50 210 9 5.4 7.0 Showers in the vicinity.
2014-Oct-30 12:20 230 7 5.4 7.0 Showers in the vicinity.
2014-Oct-30 11:50 220 9 5.4 6.0 Showers in the vicinity.
2014-Oct-30 11:20 200 9 5.4 7.0 Showers in the vicinity.
2014-Oct-30 10:50 200 9 5.4 7.0 Showers in the vicinity.
2014-Oct-30 10:20 210 10 5.4 7.0
2014-Oct-30 09:50 220 9 5.4 7.0
2014-Oct-30 09:20 220 13 5.4 7.0
2014-Oct-30 08:50 250 9 5.4 6.0 Showers in the vicinity.
2014-Oct-30 08:20 240 9 5.4 6.0 Showers in the vicinity.
2014-Oct-30 07:50 260 8 5.4 6.0 Showers in the vicinity.
2014-Oct-30 07:20 250 11 5.4 6.0
2014-Oct-30 06:50 240 9 5.4 6.0 Showers in the vicinity.
2014-Oct-30 06:20 250 10 5.4 5.0 Light drizzle.
2014-Oct-30 05:50 260 15 5.4 6.0 Rain drizzle.
2014-Oct-30 05:20 260 12 5.4 6.0
2014-Oct-30 04:50 280 13 5.4 6.0
2014-Oct-30 04:20 270 12 5.4 6.0
2014-Oct-30 03:50 270 14 5.4 6.0
2014-Oct-30 03:20 270 11 5.4 6.0 Light drizzle.
2014-Oct-30 02:50 270 15 5.4 6.0
2014-Oct-30 02:20 280 13 5.4 6.0
2014-Oct-30 01:50 260 16 3.2 5.0 Drizzle.
2014-Oct-30 01:20 260 13 5.4 6.0